Location: *
(51.1248°S, 108.4023°W)
Time: 03:22:04
(UTC+00:00)

Cosmos 1869 Rocket - Pass Details

Date: 15 June 2021
Orbit: 605 x 633 km, 82.5° (Epoch: 31 July)

Event Time Altitude Azimuth Distance (km) Brightness Sun altitude
Exits shadow 13:35:50 24° 239° (WSW) 1,302 4.6 -14.7°
Maximum altitude 13:37:08 28° 269° (W) 1,172 4.4 -14.5°
Drops below altitude 10° 13:40:52 10° 327° (NNW) 1,976 6.0 -14.0°
Sets 13:43:17 0° 338° (NNW) 2,869 7.0 -13.6°
